Tracking 35274 objects as of 10-Sep-2026
HD Live streaming from Space Station
objects crossing your sky now

SL-4 R/B


SL-4 R/B is no longer on orbit


NORAD ID: 20189
Int'l Code: 1989-065B
Launch date: August 22, 1989
Source: Commonwealth of Independent States (former USSR) (CIS)
Launch site: PLESETSK MISSILE AND SPACE COMPLEX (PKMTR)
Decay date: 1989-08-29

Note: This is a ROCKET BODY
Your satellite tracking list
Your tracking list is empty




NASA's NSSDC Master Catalog

Two Line Element Set (TLE):
1 20189U 89065  B 89241.62899909  .56163955 +39664-4 +36568-3 0  9997
2 20189 062.7831 087.3531 0008926 245.8259 114.3331 16.53380555001150
Source of the keplerian elements: AFSPC